Content
SEND FEEDBACK

Daily
Averages
Monthly
Summary
United States of America

HEWITT, WISCONSIN


Home > North America > United States > Wisconsin
Elevation: 1250 feet     Latitude: 44 39N     Longitude: 090 07W

WEATHER
 
SELECT A DAY
Number of Records: 200,385;   Date Range: 7/1/96 - 9/21/14
 
SHARE

PRINT THIS DATA

[ ← Previous Day ]
WEATHER ALMANAC - JULY 2, 2014
[ Next Day → ]
[ °C ]   °F
Weather ElementAverageHighLow
Temperature59 °F71.1 °F (5:54 pm)55.9 °F (5:54 am)
Dewpoint51.6 °F57 °F (1:13 am)39 °F (11:54 pm)
Humidity79 %100 % (2:54 am)44 % (5:54 pm)
Barometer29.89 in30.07 in (10:54 pm)29.75 in (1:13 am)
Wind Speed10.6 mph16.1 mph (12:54 pm)
Wind Gust23 mph (5:54 pm)
Weather ElementAverage
Visibility8.7 mi
Wind DirectionWNW (302.5 °)

Weather ElementTotal
Precipitation0.10 in
Heating Degree Days1.5 (Base 65)
Growing Degree Days13.5 (Base 50)
Averaged from 40 records on July 2, 2014
WEATHER CONDITIONS BREAKOUT
WIND DIRECTION BREAKOUT
WEATHER BY HOUR - JULY 2, 2014
[ °C ]   °F
Local TimeTemperatureDewpointHumidityBarometerVisibilityWind DirectionWind SpeedGust SpeedPrecipitationEventsConditions
1:13 AM57.9 °F57.0 °F97 %29.75 in5.0 miWNW (300°)10.4 mph0.00 inOvercast
1:54 AM57.0 °F55.9 °F96 %29.75 in9.0 miWNW (300°)9.2 mph0.00 inOvercast
2:02 AM57.0 °F55.9 °F96 %29.76 in6.0 miWNW (290°)10.4 mphOvercast
2:09 AM57.0 °F55.9 °F96 %29.76 in8.0 miWNW (290°)8.1 mphOvercast
2:19 AM57.0 °F55.9 °F96 %29.76 in10.0 miWNW (300°)9.2 mphOvercast
2:40 AM57.0 °F55.9 °F96 %29.76 in6.0 miWNW (300°)10.4 mph0.00 inRainLight Rain
2:54 AM57.0 °F57.0 °F100 %29.76 in5.0 miNW (310°)9.2 mph0.00 inRainLight Rain
3:10 AM57.0 °F55.9 °F96 %29.77 in5.0 miNW (320°)12.7 mph0.00 inRainLight Rain
3:25 AM57.0 °F57.0 °F100 %29.78 in2.0 miNW (320°)9.2 mph0.02 inRainRain
3:28 AM57.0 °F57.0 °F100 %29.78 in2.5 miNW (310°)9.2 mph0.02 inRainLight Rain
3:32 AM57.0 °F57.0 °F100 %29.78 in4.0 miNW (310°)9.2 mph0.02 inRainLight Rain
3:43 AM57.9 °F55.9 °F93 %29.78 in10.0 miNW (320°)11.5 mph0.02 inOvercast
3:54 AM57.0 °F55.9 °F96 %29.78 in10.0 miNW (320°)12.7 mph0.02 inOvercast
4:12 AM57.0 °F55.0 °F93 %29.79 in10.0 miNNW (330°)10.4 mphOvercast
4:54 AM57.0 °F55.0 °F93 %29.80 in10.0 miNNW (330°)10.4 mphOvercast
5:54 AM55.9 °F54.0 °F93 %29.83 in10.0 miNNW (340°)12.7 mphOvercast
6:21 AM55.9 °F53.1 °F90 %29.84 in10.0 miNorth (350°)9.2 mphOvercast
6:54 AM55.9 °F52.0 °F87 %29.86 in10.0 miNorth (360°)10.4 mphOvercast
7:54 AM55.9 °F52.0 °F87 %29.89 in10.0 miNorth (350°)10.4 mphMostly Cloudy
8:08 AM55.9 °F52.0 °F87 %29.90 in10.0 miNorth (350°)9.2 mphMostly Cloudy
8:54 AM55.9 °F51.1 °F84 %29.92 in10.0 miNorth (360°)11.5 mphOvercast
9:06 AM55.9 °F51.1 °F84 %29.92 in6.0 miNorth (350°)11.5 mphHaze
9:22 AM57.0 °F51.1 °F81 %29.93 in10.0 miNorth (350°)11.5 mphOvercast
9:30 AM57.0 °F50.0 °F77 %29.93 in10.0 miNorth (360°)11.5 mph17.3 mphOvercast
9:54 AM57.0 °F48.9 °F74 %29.94 in10.0 miNorth (360°)13.8 mphOvercast
10:35 AM57.0 °F48.9 °F74 %29.95 in10.0 miNNW (330°)13.8 mphOvercast
10:54 AM57.0 °F50.0 °F77 %29.96 in10.0 miNNW (340°)11.5 mphOvercast
11:54 AM59.0 °F51.1 °F75 %29.98 in10.0 miNorth (350°)10.4 mphOvercast
12:54 PM60.1 °F51.1 °F72 %29.99 in10.0 miNNW (340°)16.1 mphOvercast
1:49 PM62.6 °F51.8 °F68 %29.99 in10.0 miNorth (350°)10.4 mphOvercast
1:54 PM64.0 °F51.1 °F63 %29.99 in10.0 miNorth (360°)11.5 mphOvercast
2:54 PM66.9 °F51.1 °F57 %29.99 in10.0 miNorth (360°)12.7 mph19.6 mphScattered Clouds
4:54 PM70.0 °F50.0 °F49 %29.99 in10.0 miNNW (340°)13.8 mph18.4 mphClear
5:54 PM71.1 °F48.0 °F44 %29.99 in10.0 miNorth (350°)13.8 mph23.0 mphPartly Cloudy
6:54 PM68.0 °F46.0 °F45 %30.01 in10.0 miNorth (360°)8.1 mphClear
7:54 PM66.9 °F44.1 °F44 %30.01 in10.0 miNorth (360°)8.1 mphClear
8:54 PM62.1 °F43.0 °F50 %30.04 in10.0 miNNE (20°)6.9 mphClear
9:54 PM59.0 °F41.0 °F51 %30.06 in10.0 miNNE (20°)6.9 mphClear
10:54 PM59.0 °F39.9 °F49 %30.07 in10.0 miNNE (30°)8.1 mphClear
11:54 PM57.0 °F39.0 °F51 %30.07 in10.0 miNorth (10°)6.9 mphClear
Hourly data recorded from KMFI, located miles away from Hewitt, Wisconsin







STORIES FROM OUR PARTNERS